RH
33 35 31 34 34 30 27 25 26 26 21 21 21 19 19 21 21 24 26 27 33 35 35 35 37 38 41 44 45 46 44 45 46 47 47 47 48 49
35 33 35 34 30 26 25 27 28 27 26 19 19 21 23 22 21 24 25 29 29 30 39 42 42 45 48 44 42 44 48 47 47 49 50 53 54 55
35 36 34 29 25 26 28 28 27 28 28 18 20 18 17 23 23 28 33 39 40 41 43 48 54 54 52 47 46 47 53 55 56 56 55 56 55 56
37 34 28 26 27 27 26 27 28 28 32 28 18 19 23 25 27 33 38 45 46 46 48 53 53 52 54 52 58 57 56 56 56 49 53 55 55 53
33 28 26 26 24 25 26 27 28 31 32 33 29 27 30 40 40 39 41 42 48 55 62 66 69 70 64 61 57 56 56 56 55 58 61 65 63 60
27 26 24 24 24 27 28 32 34 31 32 37 41 46 47 43 42 41 48 60 69 79 79 80 86 84 83 84 81 78 76 72 71 68 66 62 57 53
26 24 26 25 27 30 33 32 34 37 42 48 49 46 43 40 49 63 74 77 79 85 82 82 84 84 84 80 78 76 75 76 74 75 76 76 70 57
26 27 27 27 27 27 28 33 39 46 48 49 45 42 47 63 75 79 81 81 77 88 88 81 87 84 84 85 86 85 85 80 77 77 72 67 66 67
28 27 27 27 26 26 27 32 44 45 45 44 46 61 75 80 83 83 83 85 87 89 88 79 85 84 87 86 88 88 90 84 68 66 70 73 75 76
28 28 28 26 29 34 35 42 39 37 38 58 76 79 83 86 88 88 86 85 86 89 90 85 87 84 86 84 83 86 88 71 68 69 73 75 74 76
29 29 29 32 33 38 44 41 37 40 67 77 81 85 85 87 91 88 86 87 83 86 89 92 89 88 90 87 85 87 78 71 71 69 72 75 77 82
31 29 29 33 36 40 43 41 51 68 76 79 80 82 83 83 86 89 88 89 88 84 90 92 88 83 86 88 94 91 78 72 72 75 80 91 97 98
30 26 27 34 39 41 44 60 74 79 80 80 79 78 78 80 81 82 89 95 89 90 92 87 81 90 95 90 90 90 89 91 94 96 97 98 98 98
31 29 33 39 36 39 61 76 80 82 81 80 80 78 76 76 75 84 88 92 95 94 91 84 89 91 93 93 93 92 94 94 96 97 98 95 93 92
31 34 34 35 35 59 75 80 82 82 82 79 75 71 70 72 71 79 83 87 94 93 91 85 90 91 91 89 94 95 93 93 96 97 96 88 90 95
33 32 33 36 62 77 79 82 83 82 77 74 72 67 69 72 72 71 81 82 89 90 88 85 90 94 94 96 96 97 98 97 96 96 94 91 96 98
35 32 35 61 78 81 81 80 78 78 77 79 76 70 72 74 76 76 77 81 89 92 88 82 87 92 94 95 95 96 97 98 97 96 90 91 89 84
33 34 58 77 80 76 76 77 79 79 81 81 75 75 75 74 74 74 75 75 82 93 94 90 86 86 85 87 92 92 96 97 98 98 98 88 90 66
33 52 75 77 76 77 77 78 80 84 85 81 78 79 78 77 75 74 74 73 73 90 96 95 89 89 87 88 89 97 96 96 94 98 86 88 82 67
45 72 72 75 77 77 80 82 84 86 86 83 83 82 80 78 77 79 78 75 74 79 95 96 94 88 91 92 92 94 96 96 94 97 96 87 82 78
68 69 72 74 77 79 80 81 82 83 85 87 88 86 84 83 82 80 80 79 78 75 92 96 96 90 93 92 93 96 97 97 97 97 94 90 81 78
67 68 72 76 78 79 80 80 81 86 87 86 86 84 84 84 84 85 84 80 78 77 84 97 96 90 90 91 94 98 97 98 97 97 88 88 81 76
66 69 72 78 79 80 82 85 88 91 95 96 97 93 90 90 91 89 86 82 80 78 77 96 96 92 92 89 93 97 97 97 97 89 89 87 84 85